{"data":{"norad_id":64202,"epoch":"2026-09-17T07:40:50.872800Z","epoch_age_seconds":289089,"freshness":"STALE","line1":"1 64202U 25116A   26260.32003325 -.00000081  00000+0  00000+0 0  9991","line2":"2 64202  55.2945  27.4305 0009047 334.6534  24.5865  2.00569445  9717","mean_motion":2.00569445,"eccentricity":0.0009047,"inclination_deg":55.2945,"raan_deg":27.4305,"arg_perigee_deg":334.6534,"mean_anomaly_deg":24.5865,"bstar":0,"rev_number":971,"period_min":717.9558182454,"perigee_km":20157.666473128,"apogee_km":20205.723833426,"semimajor_km":26559.832153277,"source":"CELESTRAK","updated_at":"2026-09-20T09:00:46.121517Z"}}